Pagina principale
METAR-TAF:

METAR-TAF

Aeroporti :

Laurel, Mississippi, Stati Uniti

latitudine: 31-40-23N, longitudine: 089-10-22W, altezza: 73 m

Osservazione

Il bollettino è stato emesso 28 minuti fa, alle 23:15 UTC
Vento 4 kt da sud-ovest
Temperature 23°C
Umidità 38%
Pressione 1020 hPa
Visibilità: 16.1 km
Nuvoloso ad un'altezza di 7000 ft
Cielo coperto ad un'altezza di 9000 ft

METAR: KLUL 242315Z AUTO 23004KT 10SM BKN070 OVC090 23/08 A3011 RMK A02 T02330082

Ora: 18:43 (23:43 UTC)


TAF: mancante

Osservazioni e previsioni meteorologiche di più di 4000 aeroporti (messaggi METAR e TAF).

Le stazioni disponibili sono rappresentate dai dischi gialli e rossi sulla carta.

Puntare il mouse per vedere il nome della stazione.

Clicca sopra per visualizzare le osservazioni e previsioni meteorologiche.

Per cambiare la mappa : fare clic sui pulsanti verdi con una croce nera per ingrandire, il pulsante verde con un trattino per diminuire, o sulla freccia verde per le mappe adiacenti.


METAR-TAF: